| time (UTC) | temp C | wind direction | speed KPH | gust KPH | rain 1hr cm | rain 24hr cm | rain mn cm | humidity % | barometer mb |
| 20260505123542 | 16 | 218 | 1.6 | 4.8 | 0.00 | 0.00 | 0.00 | 85 | 1016.7 |
| 20260505121540 | 15 | 111 | 0.0 | 1.6 | 0.00 | 0.00 | 0.00 | 91 | 1016.5 |
| 20260505115536 | 13 | 124 | 0.0 | 0.0 | 0.00 | 0.00 | 0.00 | 96 | 1016.4 |
| 20260505113535 | 12 | 134 | 0.0 | 0.0 | 0.00 | 0.00 | 0.00 | 99 | 1016.5 |
| 20260505111531 | 10 | 135 | 0.0 | 0.0 | 0.00 | 0.00 | 0.00 | 99 | 1016.1 |
| 20260505101525 | 10 | 142 | 0.0 | 0.0 | 0.00 | 0.00 | 0.00 | 98 | 1015.7 |
| 20260505095523 | 10 | 142 | 0.0 | 0.0 | 0.00 | 0.00 | 0.00 | 97 | 1015.5 |
| 20260505093520 | 10 | 142 | 0.0 | 0.0 | 0.00 | 0.00 | 0.00 | 97 | 1015.6 |
| 20260505091516 | 11 | 143 | 0.0 | 0.0 | 0.00 | 0.00 | 0.00 | 96 | 1015.4 |
| 20260505085513 | 11 | 142 | 0.0 | 0.0 | 0.00 | 0.00 | 0.00 | 96 | 1015.3 |
| 20260505083509 | 11 | 142 | 0.0 | 0.0 | 0.00 | 0.00 | 0.00 | 94 | 1015.1 |
| 20260505081506 | 11 | 142 | 0.0 | 0.0 | 0.00 | 0.00 | 0.00 | 93 | 1015.0 |
| 20260505075503 | 12 | 143 | 0.0 | 0.0 | 0.00 | 0.00 | 0.00 | 93 | 1014.7 |
| 20260505073458 | 12 | 141 | 0.0 | 0.0 | 0.00 | 0.00 | 0.00 | 92 | 1014.6 |
| 20260505071455 | 12 | 141 | 0.0 | 0.0 | 0.00 | 0.00 | 0.00 | 91 | 1014.8 |
| 20260505065454 | 12 | 141 | 0.0 | 0.0 | 0.00 | 0.00 | 0.00 | 90 | 1014.7 |
| 20260505063454 | 13 | 141 | 0.0 | 0.0 | 0.00 | 0.00 | 0.00 | 87 | 1014.9 |
| 20260505061454 | 13 | 141 | 0.0 | 0.0 | 0.00 | 0.00 | 0.00 | 86 | 1015.0 |
| 20260505055452 | 13 | 141 | 0.0 | 0.0 | 0.00 | 0.00 | 0.00 | 84 | 1015.3 |
| 20260505053447 | 13 | 141 | 0.0 | 0.0 | 0.00 | 0.00 | 0.00 | 83 | 1015.4 |
| 20260505051446 | 14 | 141 | 0.0 | 0.0 | 0.00 | 0.00 | 0.00 | 82 | 1015.5 |
| 20260505041439 | 16 | 141 | 0.0 | 0.0 | 0.00 | 0.00 | 0.00 | 76 | 1015.5 |
| 20260505035438 | 16 | 171 | 0.0 | 0.0 | 0.00 | 0.00 | 0.00 | 74 | 1015.5 |
| 20260505033437 | 16 | 143 | 0.0 | 0.0 | 0.00 | 0.00 | 0.00 | 72 | 1015.6 |
| 20260505031432 | 17 | 143 | 0.0 | 1.6 | 0.00 | 0.00 | 0.00 | 71 | 1015.8 |
| 20260505025429 | 17 | 143 | 0.0 | 0.0 | 0.00 | 0.00 | 0.00 | 69 | 1015.8 |
| 20260505023425 | 17 | 138 | 0.0 | 0.0 | 0.00 | 0.00 | 0.00 | 68 | 1015.6 |
| 20260505021424 | 18 | 133 | 0.0 | 1.6 | 0.00 | 0.00 | 0.00 | 65 | 1015.6 |
| 20260505015422 | 18 | 140 | 0.0 | 0.0 | 0.00 | 0.00 | 0.00 | 63 | 1015.5 |
| 20260505013421 | 20 | 127 | 0.0 | 1.6 | 0.00 | 0.00 | 0.00 | 60 | 1015.5 |
| 20260505011421 | 20 | 233 | 4.8 | 8.0 | 0.00 | 0.00 | 0.00 | 57 | 1015.0 |
| 20260505005419 | 21 | 207 | 1.6 | 9.7 | 0.00 | 0.00 | 0.00 | 56 | 1014.8 |
| 20260505003418 | 21 | 187 | 1.6 | 8.0 | 0.00 | 0.00 | 0.00 | 54 | 1014.3 |
| 20260505001413 | 21 | 146 | 1.6 | 3.2 | 0.00 | 0.00 | 0.00 | 55 | 1014.1 |
| 20260504235413 | 22 | 116 | 0.0 | 3.2 | 0.00 | 0.00 | 0.00 | 52 | 1013.8 |
| 20260504233410 | 23 | 244 | 0.0 | 1.6 | 0.00 | 0.00 | 0.00 | 43 | 1013.7 |
| 20260504231409 | 24 | 179 | 3.2 | 3.2 | 0.00 | 0.00 | 0.00 | 40 | 1013.6 |
| 20260504225409 | 25 | 162 | 1.6 | 8.0 | 0.00 | 0.00 | 0.00 | 39 | 1013.6 |
| 20260504223408 | 26 | 255 | 3.2 | 8.0 | 0.00 | 0.00 | 0.00 | 38 | 1013.6 |
| 20260504221408 | 26 | 305 | 3.2 | 8.0 | 0.00 | 0.00 | 0.00 | 35 | 1013.5 |
| 20260504215406 | 27 | 116 | 0.0 | 1.6 | 0.00 | 0.00 | 0.00 | 36 | 1013.6 |
| 20260504213404 | 27 | 271 | 4.8 | 9.7 | 0.00 | 0.00 | 0.00 | 33 | 1013.4 |
| 20260504211403 | 27 | 208 | 1.6 | 4.8 | 0.00 | 0.00 | 0.00 | 34 | 1013.6 |
| 20260504205358 | 27 | 207 | 4.8 | 16.1 | 0.00 | 0.00 | 0.00 | 34 | 1013.6 |
| 20260504203355 | 27 | 194 | 1.6 | 8.0 | 0.00 | 0.00 | 0.00 | 34 | 1013.6 |
| 20260504201354 | 27 | 289 | 9.7 | 9.7 | 0.00 | 0.00 | 0.00 | 35 | 1013.9 |
| 20260504195351 | 27 | 271 | 8.0 | 11.3 | 0.00 | 0.00 | 0.00 | 34 | 1013.9 |
| 20260504193349 | 27 | 145 | 3.2 | 8.0 | 0.00 | 0.00 | 0.00 | 35 | 1014.2 |
| 20260504191348 | 27 | 239 | 8.0 | 9.7 | 0.00 | 0.00 | 0.00 | 32 | 1014.5 |
| 20260504185344 | 27 | 261 | 3.2 | 8.0 | 0.00 | 0.00 | 0.00 | 34 | 1014.8 |
| 20260504183342 | 26 | 145 | 1.6 | 8.0 | 0.00 | 0.00 | 0.00 | 35 | 1015.2 |
| 20260504181342 | 26 | 171 | 4.8 | 9.7 | 0.00 | 0.00 | 0.00 | 34 | 1015.4 |
| 20260504175339 | 26 | 293 | 3.2 | 3.2 | 0.00 | 0.00 | 0.00 | 36 | 1015.4 |
| 20260504173339 | 25 | 260 | 3.2 | 9.7 | 0.00 | 0.00 | 0.00 | 37 | 1015.6 |
| 20260504171338 | 25 | 67 | 0.0 | 1.6 | 0.00 | 0.00 | 0.00 | 36 | 1015.8 |
| 20260504141315 | 19 | 162 | 1.6 | 3.2 | 0.00 | 0.00 | 0.00 | 58 | 1017.1 |